Location: Santiago
(33.4378°S, 70.6505°W)
Time: 06:15:44
(UTC+00:00)

ISS - Pass Details

Date: 19 June 2024
Orbit: 410 x 424 km, 51.6° (Epoch: 12 July)

Event Time Altitude Azimuth Distance (km) Brightness Sun altitude
Rises 22:39:12 0° 263° (W) 2,392 1.3 -11.7°
Reaches altitude 10° 22:42:43 10° 225° (SW) 1,527 -0.6 -12.4°
Maximum altitude 22:43:45 11° 207° (SSW) 1,463 -0.9 -12.6°
Drops below altitude 10° 22:44:48 10° 189° (S) 1,527 -1.0 -12.8°
Enters shadow 22:46:16 - 169° (S) 1,797 -0.8 -13.1°
